Home   Weather   Township of Fairfield   Past weeks
Flag for USA

Past Weather in Township of Fairfield, Nebraska, USA — Yesterday and Last 2 Weeks

Now
35 °F

Sunny.


Feels Like: 26 °F
Forecast: 39 / 22 °F
Wind: 14 mph from Southeast

Location: Kearney Municipal

Current Time: Dec 11, 2019 at 2:48:13 pm

Latest Report: Dec 11, 2019 at 1:56 pm


Visibility: 10 mi

Pressure: 30.25 "Hg

Humidity: 64%

Dew Point: 24 °F

Location of Township of FairfieldLocation

Past Weather in Township of Fairfield — Graph

°F

Township of Fairfield Temperature Yesterday

Maximum temperature yesterday: 32 °F (at 2:56 pm)
Minimum temperature yesterday: 16 °F (at 7:56 am)
Average temperature yesterday: 23 °F

High & Low Weather Summary for the Past Weeks

 TemperatureHumidityPressure
High54 °F (Dec 8, 2:56 pm)100% (Nov 26, 7:09 pm)30.47 "Hg (Nov 26, 7:09 pm)
Low13 °F (Nov 27, 10:56 pm)48% (Dec 4, 1:56 pm)29.25 "Hg (Nov 30, 11:04 am)
Average31 °F82%30.01 "Hg
* Reported Nov 26 12:09 pm — Dec 11 12:56 pm, Township of Fairfield. Weather by CustomWeather, © 2019

Note: Actual official high and low records may vary slightly from our data, if they occured in-between our weather recording intervals... More about our weather records

Township of Fairfield Weather History for the Previous 24 Hours

Scroll right to see more
 ConditionsComfort  
Time TempWeatherWind HumidityBarometerVisibility
12:56 pm
Wed, Dec 11
33 °FSunny.15 mph66%30.29 "Hg10 mi
11:56 am32 °FSunny.10 mph69%30.34 "Hg10 mi
10:56 am27 °FSunny.12 mph78%30.39 "Hg10 mi
9:56 am25 °FSunny.14 mph85%30.40 "Hg10 mi
9:20 am25 °FPassing clouds.15 mph86%30.31 "Hg10 mi
8:56 am24 °FSunny.13 mph88%30.38 "Hg8 mi
7:56 am19 °FSunny.10 mph88%30.36 "Hg10 mi
6:56 am22 °FClear.5 mph85%30.34 "Hg10 mi
5:56 am25 °FClear.5 mph81%30.29 "Hg10 mi
4:56 am26 °FClear.7 mph81%30.27 "Hg10 mi
3:56 am26 °FClear.13 mph81%30.26 "Hg10 mi
2:56 am26 °FClear.13 mph81%30.27 "Hg10 mi
1:56 am27 °FClear.16 mph81%30.27 "Hg10 mi
12:56 am26 °FClear.13 mph84%30.29 "Hg10 mi
11:56 pm
Tue, Dec 10
25 °FClear.12 mph88%30.31 "Hg10 mi
10:56 pm25 °FPassing clouds.14 mph88%30.31 "Hg10 mi
9:56 pm22 °FClear.14 mph92%30.32 "Hg10 mi
8:56 pm21 °FClear.13 mph88%30.34 "Hg10 mi
7:56 pm21 °FClear.8 mph81%30.36 "Hg10 mi
6:56 pm22 °FClear.12 mph78%30.34 "Hg10 mi
5:56 pm23 °FPassing clouds.13 mph74%30.32 "Hg10 mi
4:56 pm27 °FOvercast.10 mph66%30.32 "Hg10 mi
3:56 pm29 °FSunny.10 mph58%30.32 "Hg10 mi
2:56 pm32 °FSunny.10 mph50%30.33 "Hg10 mi
Weather by CustomWeather, © 2019

See weather overview

Advertising